Regional Weather Roundup
Issued by NWS

Home | Current Version | Previous Version | Text Only | Print | Product List | Glossary On
Versions: 1 2 3 4 5 6 7 8 9 10 11 12 13 14 15 16 17 18 19 20 21 22 23 24 25 26 27 28 29 30 31 32 33 34 35 36 37 38 39 40 41 42 43 44 45 46 47 48 49 50
376
ASUS44 KLIX 221205
RWRLA
LOUISIANA WEATHER ROUNDUP
NATIONAL WEATHER SERVICE NEW ORLEANS LA
700 AM CDT FRI AUG 22 2014

NOTE: "FAIR" INDICATES FEW OR NO CLOUDS BELOW 12,000 FEET WITH NO
      SIGNIFICANT WEATHER AND/OR OBSTRUCTIONS TO VISIBILITY.
      SKY/WX - SKY CONDITION AND SIGNIFICANT WEATHER.
      TMP - AIR TEMPERATURE.    DP   - DEWPOINT TEMPERATURE.
      RH  - RELATIVE HUMIDITY.  PRES - PRESSURE.
      HX  - HEAT INDEX.         WCI  - WIND CHILL INDEX.

*  THESE STATIONS ARE NOT NWS OR FAA STATIONS AND ARE NOT UNDER
   NWS QUALITY CONTROL.

LAZ040-048-061>063-065-066-069-221300-
SOUTHEAST LOUISIANA

CITY           SKY/WX    TMP DP  RH WIND       PRES   REMARKS
N.O. AUDUBON     N/A     76  75  99 MISG        N/A
6HR MIN TEMP:  75; 6HR MAX TEMP:  79;

N.O. INTL ARPT MOCLDY    76  73  91 CALM      30.11R
6HR MIN TEMP:  75; 6HR MAX TEMP:  78;

N.O. LAKEFRONT CLEAR     81  76  84 N5        30.11R
6HR MIN TEMP:  79; 6HR MAX TEMP:  82;

N.O. DOWNTOWN* FAIR      81  72  74 CALM      30.11S
6HR MIN TEMP:  79; 6HR MAX TEMP:  81;

SLIDELL        CLEAR     73  70  90 CALM      30.10R
6HR MIN TEMP:  73; 6HR MAX TEMP:  78;

BATON ROUGE    MOCLDY    74  73  97 CALM      30.11R FOG
6HR MIN TEMP:  74; 6HR MAX TEMP:  75; 6HR PCP: TRACE;

BOOTHVILLE     CLEAR     82  78  88 NW5       30.11R
6HR MIN TEMP:  80; 6HR MAX TEMP:  82;

BELLE CHASSE   MOCLDY    73  70  90 CALM      30.10R
6HR MIN TEMP:  73; 6HR MAX TEMP:  76;

BOGALUSA*        N/A     74  70  88 CALM      30.12R
6HR MIN TEMP:  73; 6HR MAX TEMP:  78;

GALLIANO*      NOT AVBL
NEW ROADS*     FAIR      72  72  98 CALM      30.10S FOG
6HR MIN TEMP:  71; 6HR MAX TEMP:  74;

GONZALES*      FAIR      74  74  99 CALM      30.11R
6HR MIN TEMP:  73; 6HR MAX TEMP:  75;

HAMMOND*       PTCLDY    73  70  88 CALM      30.13R
HOUMA*         PTCLDY    73  70  88 CALM      30.11R
PORT FOURCHON* PTSUNNY   84  79  84 N5        30.12R HX  96

$$

LAZ041-044-053-054-221300-
SOUTHWEST LOUISIANA

CITY           SKY/WX    TMP DP  RH WIND       PRES   REMARKS
LAKE CHARLES   CLEAR     76  74  93 CALM      30.08R FOG
6HR MIN TEMP:  76; 6HR MAX TEMP:  79;

LAFAYETTE      PTCLDY    74  73  97 CALM      30.10R
6HR MIN TEMP:  74; 6HR MAX TEMP:  77;

PATTERSON      CLEAR     73  72  94 CALM      30.14R
6HR MIN TEMP:  73; 6HR MAX TEMP:  75;

SALT POINT       N/A     80  77  90 CALM      30.10R
6HR MIN TEMP:  80; 6HR MAX TEMP:  81; 6HR PCP:  0.01;

NEW IBERIA     CLEAR     75  72  90 CALM      30.11R
6HR MIN TEMP:  73; 6HR MAX TEMP:  76;

CHENAULT AIRPK PTCLDY    75  75 100 CALM      30.10R

$$

LAZ027-028-221300-
CENTRAL LOUISIANA

CITY           SKY/WX    TMP DP  RH WIND       PRES   REMARKS
FORT POLK      MOCLDY    74  74 100 CALM      30.10R
6HR MIN TEMP:  73; 6HR MAX TEMP:  74;

ALEXANDRIA INT CLOUDY    74  73  97 CALM      30.08R
6HR MIN TEMP:  73; 6HR MAX TEMP:  75;

ALEXANDRIA     CLOUDY    75  72  90 CALM      30.09S
6HR MIN TEMP:  74; 6HR MAX TEMP:  75;


$$

LAZ001-002-221300-
NORTHWEST LOUISIANA

CITY           SKY/WX    TMP DP  RH WIND       PRES   REMARKS
SHREVEPORT     CLOUDY    77  74  90 SW6       30.08R
6HR MIN TEMP:  76; 6HR MAX TEMP:  78;

BARKSDALE AFB  CLOUDY    74  74 100 S5        30.09R
6HR MIN TEMP:  73; 6HR MAX TEMP:  77;

DTN SHREVEPORT MOCLDY    77  74  90 SW10      30.09R
6HR MIN TEMP:  76; 6HR MAX TEMP:  78;


$$

LAZ014-016-221300-
NORTHEAST LOUISIANA

CITY           SKY/WX    TMP DP  RH WIND       PRES   REMARKS
MONROE         CLEAR     71  70  96 S3        30.10R
6HR MIN TEMP:  69; 6HR MAX TEMP:  75;

TALLULAH       CLEAR     72  70  93 CALM      30.10S
6HR MIN TEMP:  71; 6HR MAX TEMP:  74; 6HR PCP: TRACE;


$$




USA.gov is the U.S. government's official web portal to all federal, state and local government web resources and services.